Location: Coffee Ditch
(40.9640°N, 122.7500°W)
Time: 14:28:48
(UTC+00:00)

H-2A R/B - Pass Details

Date: 08 September 2024
Orbit: 731 x 831 km, 98.2° (Epoch: 07 October)

Event Time Altitude Azimuth Distance (km) Brightness Sun altitude
Rises 12:59:16 0° 5° (N) 3,328 5.6 -9.3°
Reaches altitude 10° 13:01:41 10° 359° (N) 2,406 4.8 -8.9°
Maximum altitude 13:06:41 42° 290° (WNW) 1,157 2.6 -8.0°
Drops below altitude 10° 13:11:44 10° 221° (SW) 2,428 4.1 -7.1°
Sets 13:14:11 0° 214° (SW) 3,362 4.9 -6.6°
